FW5416 Weather Reports


time (UTC)temp
F
wind
direction
speed
knots
gust
knots
rain 1hr
in
rain 24hr
in
rain mn
in
humidity
%
barometer
mb
20260505194532 75 296 3.5 7.8 0.00 0.00 0.00 45 1014.7
20260505193030 75 292 5.2 10.4 0.00 0.00 0.00 45 1014.8
20260505191531 74 297 5.2 9.6 0.00 0.00 0.00 46 1014.9
20260505183107 72 271 6.1 12.2 0.00 0.00 0.00 49 1015.2
20260505181536 71 277 4.3 8.7 0.00 0.00 0.00 51 1015.2
20260505180034 70 281 4.3 9.6 0.00 0.00 0.00 53 1015.2
20260505174531 69 273 6.1 11.3 0.00 0.00 0.00 54 1015.3
20260505173041 68 257 6.1 13.0 0.00 0.00 0.00 55 1015.3
20260505171649 68 264 6.1 11.3 0.00 0.00 0.00 57 1015.2
20260505164529 66 281 5.2 10.4 0.00 0.00 0.00 59 1015.3
20260505163107 65 281 6.1 11.3 0.00 0.00 0.00 60 1015.3
20260505161535 64 301 6.1 12.2 0.00 0.00 0.00 61 1015.3
20260505153034 63 301 5.2 10.4 0.00 0.00 0.00 64 1015.1
20260505124531 59 340 2.6 7.0 0.00 0.00 0.00 70 1013.7
20260505123037 60 341 2.6 8.7 0.00 0.00 0.00 69 1013.5
20260505121532 60 327 2.6 7.0 0.00 0.00 0.00 68 1013.4
20260505120142 61 316 2.6 8.7 0.00 0.00 0.00 67 1013.3
20260505113034 61 299 4.3 12.2 0.00 0.00 0.00 67 1013.1
20260505111551 62 296 2.6 7.0 0.00 0.00 0.00 67 1013.0
20260505100045 63 294 5.2 12.2 0.00 0.00 0.00 65 1012.4
20260505094530 64 305 4.3 11.3 0.00 0.00 0.00 65 1012.3
20260505093030 64 295 5.2 10.4 0.00 0.00 0.00 65 1012.3
20260505091535 64 307 3.5 9.6 0.00 0.00 0.00 64 1012.2
20260505090106 64 330 3.5 8.7 0.00 0.00 0.00 63 1012.0
20260505084531 65 316 2.6 6.1 0.00 0.00 0.00 62 1012.0
20260505081530 65 298 3.5 7.0 0.00 0.00 0.00 61 1012.0
20260505074536 66 282 4.3 13.9 0.00 0.00 0.00 60 1011.8
20260505073036 66 279 4.3 9.6 0.00 0.00 0.00 60 1011.7
20260505071536 67 281 3.5 9.6 0.00 0.00 0.00 59 1011.6
20260505070030 67 268 3.5 9.6 0.00 0.00 0.00 58 1011.5
20260505064528 67 279 4.3 13.0 0.00 0.00 0.00 57 1011.3
20260505063031 68 259 3.5 11.3 0.00 0.00 0.00 55 1011.3
20260505061535 68 267 6.1 16.5 0.00 0.00 0.00 54 1011.2
20260505060031 69 263 7.8 16.5 0.00 0.00 0.00 53 1011.1
20260505054536 69 271 7.0 18.2 0.00 0.00 0.00 52 1011.0
20260505053106 70 269 7.0 19.1 0.00 0.00 0.00 50 1010.8
20260505051535 70 268 8.7 18.2 0.00 0.00 0.00 50 1010.5
20260505050145 70 271 10.4 19.1 0.00 0.00 0.00 48 1010.4
20260505041607 72 264 7.0 14.8 0.00 0.00 0.00 46 1010.1
20260505040047 72 273 8.7 20.9 0.00 0.00 0.00 46 1009.9
20260505034530 72 267 7.8 15.6 0.00 0.00 0.00 46 1009.7
20260505033035 73 267 7.8 17.4 0.00 0.00 0.00 45 1009.5
20260505031534 73 265 7.8 19.1 0.00 0.00 0.00 45 1009.4
20260505030037 74 273 8.7 18.2 0.00 0.00 0.00 44 1009.1
20260505024605 75 264 8.7 19.1 0.00 0.00 0.00 43 1008.9
20260505023036 76 263 7.8 15.6 0.00 0.00 0.00 42 1008.8
20260505021531 77 268 6.1 11.3 0.00 0.00 0.00 41 1008.8
20260505020033 78 266 8.7 17.4 0.00 0.00 0.00 41 1008.8
20260505014533 79 267 7.8 15.6 0.00 0.00 0.00 40 1008.7
20260505013032 80 269 6.1 13.9 0.00 0.00 0.00 39 1008.7
20260505011536 80 281 7.8 13.9 0.00 0.00 0.00 39 1008.7
20260505010106 81 289 7.0 15.6 0.00 0.00 0.00 38 1008.6
20260505004607 81 272 6.1 14.8 0.00 0.00 0.00 37 1008.6
20260505003036 82 266 8.7 15.6 0.00 0.00 0.00 36 1008.6
20260505001531 82 277 7.8 18.2 0.00 0.00 0.00 36 1008.7
20260505000040 82 278 8.7 18.2 0.00 0.00 0.00 35 1008.6
20260504234607 82 277 9.6 15.6 0.00 0.00 0.00 35 1008.7
20260504233031 82 277 9.6 18.2 0.00 0.00 0.00 36 1008.7
20260504231529 82 280 9.6 17.4 0.00 0.00 0.00 36 1008.8
20260504230107 83 290 7.0 13.0 0.00 0.00 0.00 36 1009.0
20260504224537 83 287 7.0 14.8 0.00 0.00 0.00 35 1009.2
20260504223106 83 296 6.1 11.3 0.00 0.00 0.00 35 1009.4
20260504221536 82 283 7.0 16.5 0.00 0.00 0.00 35 1009.5
20260504220147 83 290 7.8 14.8 0.00 0.00 0.00 35 1009.7
20260504214607 83 299 6.1 13.9 0.00 0.00 0.00 34 1009.9
20260504213115 83 294 6.1 13.9 0.00 0.00 0.00 34 1010.0
20260504211537 84 290 6.1 12.2 0.00 0.00 0.00 33 1010.2
20260504210041 83 296 3.5 10.4 0.00 0.00 0.00 33 1010.3
20260504204531 83 291 4.3 9.6 0.00 0.00 0.00 33 1010.4
20260504203033 83 287 4.3 9.6 0.00 0.00 0.00 34 1010.6
20260504201530 83 301 4.3 10.4 0.00 0.00 0.00 34 1010.7
20260504200034 83 328 2.6 7.0 0.00 0.00 0.00 36 1010.9